Location: Carrières
(48.9495°N, 2.0407°E)
Time: 00:21:47
(UTC+00:00)

Tiros 1 despin weight - All Passes

Search period start: 17 April 2024 00:00
Search period end: 27 April 2024 00:00
Orbit: 579 x 623 km, 48.2° (Epoch: 16 April)

Date Brightness Start Highest point End Pass type
(mag) Time Alt. Az. Time Alt. Az. Time Alt. Az.
17 Apr - 12:37:13 10° SSE 12:39:09 13° SE 12:41:08 10° ESE daylight
17 Apr - 14:15:16 10° SW 14:19:30 42° SSE 14:23:48 10° E daylight
17 Apr - 15:55:57 10° W 16:00:29 80° S 16:05:03 10° E daylight
17 Apr - 17:37:07 10° W 17:41:39 69° SSW 17:46:12 10° ESE daylight
17 Apr - 19:18:31 10° W 19:22:25 28° SSW 19:26:20 10° SSE visible
18 Apr - 12:46:33 10° S 12:49:49 20° SE 12:53:07 10° E daylight
18 Apr - 14:26:01 10° WSW 14:30:24 57° SSE 14:34:52 10° E daylight
18 Apr - 16:06:59 10° W 16:11:30 83° S 16:16:05 10° E daylight
18 Apr - 17:48:08 10° W 17:52:36 54° SSW 17:57:04 10° ESE daylight
18 Apr - 19:29:56 10° W 19:33:10 19° SW 19:36:23 10° S visible
19 Apr - 12:56:40 10° SSW 13:00:33 30° SSE 13:04:30 10° E daylight
19 Apr - 14:36:53 10° WSW 14:41:21 71° SSE 14:45:53 10° E daylight
19 Apr - 16:17:59 10° W 16:22:30 79° S 16:27:05 10° ESE daylight
19 Apr - 17:59:12 10° W 18:03:28 40° SSW 18:07:45 10° SE daylight
19 Apr - 19:42:09 10° WSW 19:43:47 12° SW 19:45:27 10° SSW visible
20 Apr - 11:29:04 10° SSE 11:31:01 13° SE 11:32:59 10° ESE daylight
20 Apr - 13:07:09 10° SW 13:11:21 42° SSE 13:15:38 10° E daylight
20 Apr - 14:47:50 10° W 14:52:20 80° S 14:56:53 10° E daylight
20 Apr - 16:28:59 10° W 16:33:29 68° SSW 16:38:01 10° ESE daylight
20 Apr - 18:10:22 10° W 18:14:16 28° SSW 18:18:09 10° SSE daylight
21 Apr - 11:38:24 10° S 11:41:39 20° SE 11:44:56 10° E daylight
21 Apr - 13:17:51 10° WSW 13:22:13 57° SSE 13:26:40 10° E daylight
21 Apr - 14:58:49 10° W 15:03:19 83° S 15:07:52 10° E daylight
21 Apr - 16:39:58 10° W 16:44:23 54° SSW 16:48:51 10° SE daylight
21 Apr - 18:21:46 10° W 18:24:57 19° SW 18:28:08 10° S daylight
22 Apr - 11:48:29 10° SSW 11:52:20 30° SSE 11:56:15 10° E daylight
22 Apr - 13:28:42 10° WSW 13:33:08 71° SSE 13:37:38 10° E daylight
22 Apr - 15:09:47 10° W 15:14:17 78° S 15:18:50 10° ESE daylight
22 Apr - 16:51:00 10° W 16:55:14 39° SSW 16:59:29 10° SE daylight
22 Apr - 18:33:59 10° WSW 18:35:33 12° SW 18:37:06 10° SSW daylight
23 Apr - 10:20:50 10° SSE 10:22:46 13° SE 10:24:43 10° ESE daylight
23 Apr - 11:58:56 10° SW 12:03:06 42° SSE 12:07:21 10° E daylight
23 Apr - 13:39:36 10° W 13:44:04 80° S 13:48:36 10° E daylight
23 Apr - 15:20:44 10° W 15:25:12 68° SSW 15:29:44 10° ESE daylight
23 Apr - 17:02:08 10° W 17:05:59 28° SSW 17:09:51 10° SSE daylight
24 Apr - 10:30:07 10° S 10:33:21 20° SE 10:36:37 10° E daylight
24 Apr - 12:09:35 10° WSW 12:13:56 57° SSE 12:18:21 10° E daylight
24 Apr - 13:50:33 10° W 13:55:01 83° S 13:59:33 10° E daylight
24 Apr - 15:31:42 10° W 15:36:05 53° SSW 15:40:30 10° SE daylight
24 Apr - 17:13:30 10° W 17:16:39 18° SW 17:19:47 10° S daylight
25 Apr - 10:40:11 10° SSW 10:44:00 30° SSE 10:47:54 10° E daylight
25 Apr - 12:20:24 10° WSW 12:24:48 71° SSE 12:29:17 10° E daylight
25 Apr - 14:01:28 10° W 14:05:57 78° S 14:10:28 10° ESE daylight
25 Apr - 15:42:41 10° W 15:46:53 39° SSW 15:51:07 10° SE daylight
25 Apr - 17:25:44 10° WSW 17:27:12 11° SW 17:28:40 10° SSW daylight
26 Apr - 09:12:30 10° SSE 09:14:24 13° SE 09:16:21 10° ESE daylight
26 Apr - 10:50:36 10° SW 10:54:45 42° SSE 10:58:58 10° E daylight
26 Apr - 12:31:16 10° W 12:35:42 80° S 12:40:12 10° E daylight
26 Apr - 14:12:23 10° W 14:16:50 67° SSW 14:21:20 10° ESE daylight
26 Apr - 15:53:47 10° W 15:57:36 27° SSW 16:01:26 10° SSE daylight
